Vertical_Velocity
-1 8 1 2 1 2 2 3 2 -5 -2 7 -2 -1 -2 -3 5 3 0 1 1 -0 2 -1 3 1 -1 -0 -1 -1 -1 -1 2 2 -1 0 0 1 1 -0 -1 1 1 1
5 2 2 -0 0 2 0 2 -5 -7 -1 8 -1 -6 -4 0 -7 -4 -2 1 0 2 4 2 0 1 0 1 1 -1 0 1 1 -1 -2 -3 -2 0 -4 -2 -1 -1 -2 -2
4 4 -0 2 -1 1 -1 4 -1 11 -4 1 7 -5 1 -2 4 3 2 1 3 -3 1 1 2 0 1 2 0 -0 0 1 -2 -3 -0 -1 2 2 3 1 2 -0 -0 -0
2 1 1 0 0 4 2 2 3 1 8 1 4 -9 -1 1 0 2 0 1 -0 0 6 1 1 2 2 1 -0 1 0 -1 -2 -3 -1 -1 -1 -0 -2 1 2 1 0 1
10 -1 -0 2 1 3 3 2 2 2 1 6 -2 9 -9 1 1 1 -1 -2 1 0 0 0 1 1 3 -0 0 -0 -0 -0 -2 -2 -2 -1 -2 -1 -2 -0 1 2 1 -2
1 -2 3 4 -0 1 1 3 1 1 2 5 -4 7 -5 2 5 -2 -0 1 -0 2 3 1 1 3 2 1 -0 0 0 1 -2 -1 -1 -3 -2 -2 0 -0 -0 -2 -1 -1
-5 2 -0 1 4 4 5 3 -4 -3 2 -2 1 3 4 1 1 4 1 1 0 1 3 -1 1 2 1 0 0 -1 2 0 -1 -0 -2 -2 -1 3 3 -2 -3 -4 -4 -4
3 7 1 1 6 8 1 7 4 2 2 -0 0 -1 12 3 1 -0 4 1 4 2 1 3 2 0 2 0 -0 2 1 0 -0 -1 -4 -1 1 2 -0 -2 -1 1 -2 -0
1 -3 -5 -0 0 9 3 3 5 2 0 6 -1 1 7 -2 -1 -1 1 0 3 2 2 2 0 2 2 1 1 -0 -0 -1 -1 -5 -1 2 -0 -1 -2 -1 -1 -1 -2 1
-2 -1 -1 -4 3 3 11 2 5 -0 2 0 -1 -0 3 -2 -1 1 1 2 3 4 2 1 2 2 2 1 -0 -1 -0 -2 -4 -1 1 -0 -0 -1 -2 -1 -1 -2 0 2
2 3 -9 6 2 2 2 1 -2 -2 2 3 1 3 1 1 2 1 1 0 1 1 0 1 1 2 2 0 -1 -0 -2 -4 0 2 0 -0 -1 -2 -1 -0 -1 -2 1 1
4 3 0 -3 2 1 2 1 -2 3 3 1 3 -4 -0 1 1 -1 1 1 1 -0 1 -0 2 1 1 -0 0 -2 -5 1 2 -2 -1 -1 -2 -2 -2 0 -2 -1 -1 1
-0 -2 -1 3 10 2 1 0 0 -0 1 -2 3 1 0 0 -0 1 -0 2 1 1 0 2 1 2 -2 1 -2 -2 1 0 -3 0 -1 -2 -2 -3 0 -1 -3 -2 3 -2
6 0 2 6 7 7 0 -1 -0 -0 2 -0 -3 -6 -8 -2 0 2 2 0 2 -2 -0 1 2 -2 2 -2 1 -1 0 -2 -0 -2 -2 -2 -3 -2 -1 -1 -2 -2 1 -0
3 2 4 -3 -1 3 2 1 -1 2 -3 -0 -2 -0 -6 -1 0 -1 -3 1 1 2 1 1 -2 1 -0 2 -3 1 -1 -0 -2 -1 -1 -1 -2 -1 0 -0 -1 -0 1 -1
-2 -5 2 -6 -2 2 1 -1 0 -0 -2 2 2 -8 1 1 1 2 0 -1 0 1 1 -1 0 0 2 -2 0 1 -1 -1 -2 -1 -1 -1 -2 0 0 -2 0 2 1 -3
5 2 -0 -5 0 -1 -0 -2 -1 -1 0 1 3 -10 -1 1 1 -1 1 -2 -1 -2 -1 -1 -1 1 1 -3 2 -1 -2 -2 -1 -1 -2 -1 -2 0 -1 -0 -0 -3 -2 -0
0 2 2 -2 -0 4 3 0 2 2 -0 -0 1 -2 -0 0 -0 -0 -1 -1 -2 -1 -1 -2 -2 0 1 -2 0 -2 -3 -2 -0 -2 -2 -1 -2 -1 -1 1 -0 -2 -1 -2
1 1 -0 3 1 -4 0 2 1 4 10 1 1 0 1 1 -1 7 1 2 1 1 1 -0 -1 2 -1 -3 -0 -3 -2 -1 -1 -2 -2 -1 -2 -1 1 -0 -1 -0 -1 1
2 4 6 -1 3 1 9 3 -0 1 5 2 1 0 -1 1 4 5 -2 0 1 2 -3 -4 -2 0 -1 -2 -1 -1 -2 -1 -1 0 -2 -0 -1 0 -0 -1 -3 -0 -1 1
2 2 1 -1 0 -5 1 2 -1 -0 13 0 2 1 -1 1 7 -7 0 3 2 -3 -4 -3 1 2 -2 -1 -1 -1 -3 -0 -1 -1 -2 -0 -0 -1 -1 -1 -1 -1 -0 2
3 3 -1 3 3 1 3 -9 1 12 -3 1 2 -0 1 -1 3 2 1 -1 0 -3 -4 2 -2 1 -2 -1 0 -0 -3 -1 -3 -1 -2 -1 1 -1 -1 -1 1 1 -0 1
5 3 3 5 -1 2 -3 7 2 3 4 1 3 -1 -1 0 0 3 -1 -1 -1 -2 -5 0 1 -2 -1 -1 0 0 -3 -2 -3 -1 -1 -2 -1 -0 -0 -1 -1 -2 0 -3
-1 1 2 4 -3 1 0 3 2 3 3 1 2 2 -1 -2 2 2 0 0 -2 -2 -3 -2 -2 -2 -2 -2 -0 0 -3 -3 -2 -1 -0 -1 -2 -1 -2 -1 -1 2 -2 -2
-5 5 -1 -6 -2 -9 6 3 5 -2 -1 0 -0 2 1 -2 3 -0 -1 0 -1 -3 -1 0 -1 -0 -2 -2 -1 1 -3 -3 -2 -2 -0 -1 -1 -2 -1 -1 -3 -2 -0 -2
-2 -2 2 -1 0 10 -6 -3 -1 3 1 0 2 1 2 4 -2 -0 -0 -0 -3 -3 -3 -1 -2 -1 -2 -2 -1 1 -3 -3 -1 -2 -1 0 -1 -1 -2 -1 -0 -1 -2 -0
Height
1499 1492 1492 1492 1496 1497 1497 1496 1493 1489 1488 1495 1487 1484 1480 1494 1497 1497 1501 1505 1510 1515 1519 1523 1527 1529 1531 1533 1533 1534 1533 1532 1531 1529 1526 1523 1520 1517 1512 1508 1503 1498 1493 1487
1496 1495 1495 1498 1497 1497 1496 1495 1490 1485 1487 1495 1482 1481 1476 1479 1486 1490 1494 1499 1506 1512 1516 1522 1525 1527 1529 1531 1532 1532 1533 1532 1530 1528 1524 1520 1517 1514 1510 1506 1501 1497 1491 1485
1500 1496 1500 1499 1496 1497 1492 1495 1491 1490 1481 1489 1484 1477 1466 1470 1477 1486 1490 1495 1502 1508 1513 1519 1523 1525 1528 1530 1530 1532 1531 1530 1528 1525 1523 1520 1517 1514 1510 1505 1501 1495 1489 1483
1500 1501 1499 1498 1497 1498 1498 1494 1494 1489 1487 1484 1478 1478 1460 1461 1474 1481 1487 1492 1498 1503 1511 1516 1521 1523 1526 1528 1529 1530 1530 1529 1526 1523 1522 1518 1516 1513 1508 1503 1499 1493 1487 1480
1502 1500 1499 1498 1497 1497 1495 1496 1493 1489 1487 1484 1479 1485 1463 1468 1468 1474 1482 1488 1494 1501 1508 1514 1519 1522 1525 1526 1529 1529 1529 1528 1525 1522 1519 1518 1515 1511 1507 1502 1496 1491 1485 1478
1502 1501 1501 1497 1498 1499 1498 1494 1485 1486 1483 1494 1480 1483 1471 1468 1477 1476 1479 1483 1491 1500 1507 1513 1518 1522 1525 1527 1528 1528 1529 1528 1524 1521 1519 1516 1513 1509 1505 1500 1494 1488 1482 1476
1502 1498 1500 1502 1497 1495 1494 1489 1500 1501 1499 1497 1484 1488 1477 1478 1482 1483 1480 1482 1490 1499 1506 1512 1517 1521 1524 1526 1527 1529 1529 1528 1524 1522 1519 1516 1512 1509 1504 1498 1493 1486 1480 1474
1516 1505 1504 1504 1500 1497 1494 1495 1508 1516 1496 1487 1479 1484 1481 1483 1488 1488 1481 1483 1490 1499 1506 1512 1518 1522 1524 1526 1528 1529 1529 1527 1525 1522 1519 1516 1512 1507 1503 1497 1491 1486 1479 1472
1536 1514 1507 1508 1504 1502 1495 1499 1502 1503 1496 1499 1484 1476 1477 1481 1484 1488 1490 1490 1495 1501 1508 1514 1519 1522 1524 1527 1529 1529 1528 1527 1525 1522 1519 1516 1511 1507 1502 1496 1491 1485 1477 1470
1542 1534 1508 1506 1506 1503 1500 1501 1508 1515 1508 1504 1496 1497 1494 1488 1487 1491 1494 1496 1499 1504 1510 1515 1520 1523 1525 1528 1528 1528 1528 1527 1525 1523 1519 1516 1512 1507 1502 1496 1490 1483 1476 1470
1541 1540 1512 1507 1500 1504 1505 1506 1515 1520 1521 1510 1507 1495 1489 1488 1489 1492 1496 1500 1503 1507 1511 1516 1520 1523 1526 1529 1529 1529 1529 1527 1526 1523 1520 1516 1512 1508 1503 1497 1490 1483 1476 1469
1542 1542 1528 1505 1503 1505 1504 1504 1520 1512 1518 1520 1514 1500 1489 1490 1492 1494 1498 1501 1506 1509 1514 1518 1521 1525 1528 1530 1531 1531 1529 1528 1526 1524 1521 1517 1514 1509 1503 1497 1490 1483 1476 1470
1543 1539 1528 1501 1505 1505 1503 1505 1510 1522 1516 1512 1506 1497 1491 1493 1495 1497 1500 1504 1506 1511 1515 1519 1524 1527 1530 1531 1532 1532 1531 1530 1528 1526 1523 1519 1515 1509 1504 1498 1491 1484 1477 1471
1546 1540 1539 1525 1520 1514 1511 1504 1508 1513 1516 1512 1506 1500 1492 1490 1491 1498 1501 1505 1507 1511 1516 1521 1526 1529 1531 1532 1533 1533 1532 1531 1529 1527 1524 1520 1516 1511 1506 1500 1493 1486 1480 1472
1544 1537 1527 1521 1516 1509 1503 1498 1498 1513 1507 1510 1497 1500 1489 1487 1487 1495 1500 1505 1508 1512 1518 1523 1527 1529 1532 1533 1534 1534 1533 1532 1530 1529 1526 1522 1518 1513 1508 1502 1496 1489 1483 1476
1546 1536 1528 1517 1502 1502 1496 1492 1490 1490 1497 1503 1502 1499 1484 1486 1489 1495 1499 1504 1508 1513 1518 1524 1528 1531 1533 1535 1535 1535 1535 1533 1532 1530 1528 1524 1520 1516 1511 1505 1499 1493 1487 1480
1550 1540 1530 1511 1501 1501 1498 1490 1480 1479 1482 1485 1488 1483 1482 1487 1490 1493 1498 1502 1506 1512 1518 1524 1528 1532 1534 1535 1536 1537 1536 1535 1534 1533 1530 1527 1523 1519 1514 1509 1503 1497 1491 1485
1547 1540 1536 1521 1510 1505 1481 1479 1481 1480 1478 1479 1481 1478 1482 1484 1487 1493 1498 1501 1507 1514 1520 1525 1529 1532 1534 1536 1538 1538 1538 1537 1536 1535 1533 1529 1526 1522 1518 1514 1508 1502 1497 1491
1550 1543 1534 1524 1509 1491 1479 1480 1484 1481 1480 1479 1477 1477 1482 1486 1489 1495 1499 1504 1508 1514 1521 1526 1530 1533 1535 1537 1538 1539 1540 1540 1539 1537 1535 1533 1529 1526 1522 1518 1513 1508 1503 1498
1549 1551 1547 1530 1514 1498 1483 1480 1483 1482 1481 1481 1480 1480 1483 1486 1480 1490 1499 1505 1511 1517 1522 1526 1530 1533 1536 1538 1539 1541 1542 1543 1541 1540 1538 1536 1533 1530 1527 1523 1519 1514 1510 1505
1541 1547 1544 1538 1524 1497 1486 1484 1482 1481 1488 1482 1481 1480 1483 1483 1484 1489 1499 1506 1512 1518 1523 1527 1531 1535 1538 1539 1541 1543 1544 1544 1544 1543 1541 1540 1537 1534 1531 1528 1524 1520 1517 1512
1542 1535 1535 1534 1519 1508 1493 1484 1489 1490 1486 1485 1483 1483 1485 1487 1490 1494 1501 1507 1513 1518 1524 1528 1532 1536 1538 1541 1543 1546 1547 1547 1546 1546 1545 1543 1542 1539 1537 1534 1530 1527 1523 1517
1542 1545 1541 1537 1503 1495 1500 1497 1495 1491 1488 1486 1486 1486 1487 1490 1493 1497 1502 1509 1515 1520 1525 1530 1533 1536 1539 1543 1545 1548 1548 1549 1549 1549 1548 1547 1546 1544 1542 1539 1536 1532 1530 1525
1545 1543 1539 1534 1502 1500 1499 1498 1495 1492 1489 1487 1487 1487 1488 1491 1495 1500 1505 1511 1517 1522 1526 1530 1534 1537 1540 1544 1546 1548 1550 1551 1552 1551 1551 1551 1550 1549 1547 1545 1542 1539 1535 1533
1545 1541 1533 1525 1509 1498 1493 1495 1494 1489 1488 1486 1485 1487 1489 1492 1498 1502 1507 1513 1518 1523 1527 1531 1535 1538 1541 1544 1547 1549 1551 1553 1554 1554 1555 1555 1554 1553 1552 1550 1548 1546 1543 1541
1537 1533 1527 1513 1512 1511 1504 1498 1495 1490 1488 1485 1486 1488 1491 1495 1498 1504 1510 1515 1518 1523 1527 1532 1536 1539 1542 1545 1548 1550 1553 1554 1556 1557 1558 1558 1558 1557 1557 1556 1555 1553 1551 1550